GW2328 Weather Reports


Display with metric or nautical units.
time (UTC)temp
F
wind
direction
speed
MPH
gust
MPH
rain 1hr
in
rain 24hr
in
rain mn
in
humidity
%
barometer
mb
20260831101715 69 145 0.0 0.0 0.00 0.00 0.00 99 1022.6
20260831101210 69 145 0.0 0.0 0.00 0.00 0.00 99 1022.5
20260831100706 69 145 0.0 0.0 0.00 0.00 0.00 99 1022.6
20260831100202 69 145 0.0 0.0 0.00 0.00 0.00 99 1022.5
20260831095700 69 145 0.0 0.0 0.00 0.00 0.00 99 1022.4
20260831095155 69 145 0.0 0.0 0.00 0.00 0.00 99 1022.4
20260831094650 69 145 0.0 0.0 0.00 0.00 0.00 99 1022.3
20260831094146 69 145 0.0 0.0 0.00 0.00 0.00 99 1022.1
20260831093641 69 145 0.0 0.0 0.00 0.00 0.00 99 1022.2
20260831093137 69 145 0.0 0.0 0.00 0.00 0.00 99 1022.3
20260831092633 69 145 0.0 0.0 0.00 0.00 0.00 99 1021.9
20260831092128 69 145 0.0 0.0 0.00 0.00 0.00 99 1022.2
20260831091623 69 145 0.0 0.0 0.00 0.00 0.00 99 1022.0
20260831091118 69 145 0.0 0.0 0.00 0.00 0.00 99 1021.8
20260831090614 69 145 0.0 0.0 0.00 0.00 0.00 99 1022.2
20260831090110 69 145 0.0 0.0 0.00 0.00 0.00 99 1022.0
20260831085605 69 145 0.0 0.0 0.00 0.00 0.00 99 1022.2
20260831085100 69 145 0.0 0.0 0.00 0.00 0.00 99 1022.1
20260831084556 69 145 0.0 0.0 0.00 0.00 0.00 99 1022.1
20260831084052 69 145 0.0 0.0 0.00 0.00 0.00 99 1022.1
20260831083548 69 145 0.0 0.0 0.00 0.00 0.00 98 1022.0
20260831083042 69 145 0.0 0.0 0.00 0.00 0.00 98 1021.9
20260831082536 69 145 0.0 0.0 0.00 0.00 0.00 98 1021.8
20260831082031 69 145 0.0 0.0 0.00 0.00 0.00 98 1022.0
20260831081527 69 145 0.0 0.0 0.00 0.00 0.00 98 1021.9
20260831081022 69 145 0.0 0.0 0.00 0.00 0.00 98 1021.9
20260831080516 69 148 0.0 0.0 0.00 0.00 0.00 98 1021.8
20260831080012 69 148 0.0 0.0 0.00 0.00 0.00 98 1021.9
20260831075507 69 148 0.0 0.0 0.00 0.00 0.00 98 1021.7
20260831075003 69 148 0.0 0.0 0.00 0.00 0.00 98 1021.7
20260831074502 69 146 0.0 0.0 0.00 0.00 0.00 98 1021.9
20260831073957 70 146 0.0 0.0 0.00 0.00 0.00 98 1022.0
20260831073457 70 146 0.0 0.0 0.00 0.00 0.00 98 1021.9
20260831072955 70 146 0.0 0.0 0.00 0.00 0.00 98 1022.0
20260831072452 70 146 0.0 0.0 0.00 0.00 0.00 98 1022.0
20260831071948 70 146 0.0 0.0 0.00 0.00 0.00 98 1022.1
20260831071446 70 146 0.0 0.0 0.00 0.00 0.00 98 1022.2
20260831070941 70 146 0.0 0.0 0.00 0.00 0.00 98 1022.5
20260831070435 70 146 0.0 0.0 0.00 0.00 0.00 98 1022.0
20260831065935 70 146 0.0 0.0 0.00 0.00 0.00 97 1022.2
20260831065433 70 146 0.0 0.0 0.00 0.00 0.00 97 1022.3
20260831064927 70 147 0.0 0.0 0.00 0.00 0.00 97 1022.3
20260831064422 70 147 0.0 0.0 0.00 0.00 0.00 97 1022.1
20260831063918 70 147 0.0 0.0 0.00 0.00 0.00 97 1022.3
20260831063413 70 147 0.0 0.0 0.00 0.00 0.00 97 1022.4
20260831062908 70 147 0.0 0.0 0.00 0.00 0.00 97 1022.5
20260831062403 70 147 0.0 0.0 0.00 0.00 0.00 97 1022.5
20260831061902 70 147 0.0 0.0 0.00 0.00 0.00 97 1022.3
20260831061401 70 147 0.0 0.0 0.00 0.00 0.00 97 1022.6
20260831060858 70 146 0.0 0.0 0.00 0.00 0.00 97 1022.6
20260831060357 70 146 0.0 0.0 0.00 0.00 0.00 97 1022.6
20260831055851 70 146 0.0 0.0 0.00 0.00 0.00 97 1022.7
20260831055346 70 146 0.0 0.0 0.00 0.00 0.00 97 1022.7
20260831054842 70 147 0.0 0.0 0.00 0.00 0.00 96 1022.6
20260831054337 71 147 0.0 0.0 0.00 0.00 0.00 96 1022.6
20260831053836 71 147 0.0 0.0 0.00 0.00 0.00 96 1022.4
20260831053335 71 147 0.0 0.0 0.00 0.00 0.00 96 1022.4
20260831052829 71 147 0.0 0.0 0.00 0.00 0.00 96 1022.4
20260831052329 71 148 0.0 0.0 0.00 0.00 0.00 96 1022.6
20260831051827 71 146 0.0 0.0 0.00 0.00 0.00 96 1022.4
20260831051326 71 145 0.0 0.0 0.00 0.00 0.00 96 1022.4
20260831050821 71 145 0.0 0.0 0.00 0.00 0.00 96 1022.3
20260831050320 71 145 0.0 0.0 0.00 0.00 0.00 96 1022.3
20260831045814 71 145 0.0 0.0 0.00 0.00 0.00 96 1022.3
20260831045308 71 145 0.0 0.0 0.00 0.00 0.00 95 1022.3
20260831044804 71 145 0.0 0.0 0.00 0.00 0.00 95 1022.4
20260831044258 71 142 0.0 0.0 0.00 0.00 0.00 95 1022.7
20260831043754 71 146 0.0 0.0 0.00 0.00 0.00 95 1022.7
20260831043248 72 146 0.0 0.0 0.00 0.00 0.00 95 1022.5
20260831042743 72 146 0.0 0.0 0.00 0.00 0.00 95 1022.5
20260831042237 72 146 0.0 0.0 0.00 0.00 0.00 95 1022.4
20260831041732 72 146 0.0 0.0 0.00 0.00 0.00 95 1022.5
20260831041232 72 147 0.0 0.0 0.00 0.00 0.00 94 1022.6
20260831040727 72 149 0.0 0.0 0.00 0.00 0.00 94 1022.7
20260831040227 72 146 0.0 0.0 0.00 0.00 0.00 94 1022.6
20260831035725 73 150 0.0 0.0 0.00 0.00 0.00 94 1022.3
20260831035224 73 142 0.0 0.0 0.00 0.00 0.00 94 1022.4
20260831034723 73 142 0.0 0.0 0.00 0.00 0.00 93 1022.4
20260831034220 73 142 0.0 0.0 0.00 0.00 0.00 93 1022.7
20260831033715 73 147 0.0 0.0 0.00 0.00 0.00 93 1022.3
20260831033214 73 147 0.0 0.0 0.00 0.00 0.00 93 1022.3
20260831032709 73 148 0.0 0.0 0.00 0.00 0.00 93 1022.3
20260831032205 73 147 0.0 0.0 0.00 0.00 0.00 92 1022.3
20260831031659 73 146 0.0 0.0 0.00 0.00 0.00 92 1022.2
20260831031159 74 147 0.0 0.0 0.00 0.00 0.00 92 1022.3
20260831030658 74 147 0.0 0.0 0.00 0.00 0.00 91 1022.2
20260831030157 74 146 0.0 0.0 0.00 0.00 0.00 91 1022.4
20260831025655 74 147 0.0 0.0 0.00 0.00 0.00 91 1022.5
20260831025150 74 147 0.0 0.0 0.00 0.00 0.00 90 1022.4
20260831024647 74 147 0.0 0.0 0.00 0.00 0.00 90 1022.5
20260831024145 75 147 0.0 0.0 0.00 0.00 0.00 90 1022.5
20260831023644 75 147 0.0 0.0 0.00 0.00 0.00 89 1022.6
20260831023138 75 147 0.0 0.0 0.00 0.00 0.00 89 1022.4
20260831022633 75 147 0.0 0.0 0.00 0.00 0.00 89 1022.4
20260831022128 75 147 0.0 0.0 0.00 0.00 0.00 88 1022.6
20260831021627 75 147 0.0 0.0 0.00 0.00 0.00 88 1022.6
20260831021122 75 149 0.0 0.0 0.00 0.00 0.00 87 1022.2
20260831020618 76 145 0.0 0.0 0.00 0.00 0.00 87 1022.1
20260831020112 76 148 0.0 0.0 0.00 0.00 0.00 86 1022.2
20260831015608 76 147 0.0 0.0 0.00 0.00 0.00 85 1022.2
20260831015103 76 147 0.0 0.0 0.00 0.00 0.00 85 1021.8
20260831014557 77 147 0.0 0.0 0.00 0.00 0.00 84 1022.0
20260831014053 77 147 0.0 0.0 0.00 0.00 0.00 84 1021.8
20260831013549 77 147 0.0 0.0 0.00 0.00 0.00 83 1021.6
20260831013043 77 147 0.0 0.0 0.00 0.00 0.00 82 1021.7
20260831012543 78 147 0.0 0.0 0.00 0.00 0.00 82 1021.8
20260831012043 78 147 0.0 0.0 0.00 0.00 0.00 81 1021.9
20260831011543 78 147 0.0 0.0 0.00 0.00 0.00 80 1021.9
20260831011038 78 147 0.0 0.0 0.00 0.00 0.00 79 1021.9
20260831010534 79 147 0.0 0.0 0.00 0.00 0.00 78 1021.7
20260831010030 79 147 0.0 0.0 0.00 0.00 0.00 77 1021.8
20260831005525 79 148 0.0 0.0 0.00 0.00 0.00 76 1021.7
20260831005024 80 148 0.0 0.0 0.00 0.00 0.00 75 1021.7
20260831004520 80 148 0.0 0.0 0.00 0.00 0.00 74 1021.7
20260831004016 81 150 0.0 0.0 0.00 0.00 0.00 72 1021.2
20260831003512 81 144 0.0 0.0 0.00 0.00 0.00 71 1021.6
20260831003008 82 144 0.0 0.0 0.00 0.00 0.00 70 1021.4
20260831002506 82 144 0.0 0.0 0.00 0.00 0.00 70 1021.4
20260831002001 82 144 0.0 0.0 0.00 0.00 0.00 69 1021.1
20260831001456 83 144 0.0 0.0 0.00 0.00 0.00 68 1021.4
20260831000954 84 144 0.0 0.0 0.00 0.00 0.00 68 1021.4
20260831000449 84 144 0.0 0.0 0.00 0.00 0.00 67 1021.4
20260830235947 84 142 0.0 0.0 0.00 0.00 0.00 66 1021.4
20260830235443 85 145 0.0 0.0 0.00 0.00 0.00 65 1021.5
20260830234938 85 145 0.0 0.0 0.00 0.00 0.00 65 1021.4
20260830234433 86 147 0.0 0.0 0.00 0.00 0.00 64 1021.5
20260830233929 86 145 0.0 0.0 0.00 0.00 0.00 63 1021.3
20260830233424 86 145 0.0 0.0 0.00 0.00 0.00 63 1021.5
20260830232919 86 146 0.0 0.0 0.00 0.00 0.00 62 1021.5
20260830232415 87 146 0.0 0.0 0.00 0.00 0.00 62 1021.4
20260830231912 87 145 0.0 0.0 0.00 0.00 0.00 61 1021.6
20260830231407 87 145 0.0 0.0 0.00 0.00 0.00 61 1021.3
20260830230906 87 146 0.0 0.0 0.00 0.00 0.00 60 1021.3
20260830230402 88 149 0.0 1.0 0.00 0.00 0.00 59 1021.6
20260830225901 88 145 0.0 0.0 0.00 0.00 0.00 58 1021.3
20260830225356 89 144 0.0 0.0 0.00 0.00 0.00 58 1021.5
20260830224850 89 146 0.0 0.0 0.00 0.00 0.00 57 1021.4
20260830224344 89 148 0.0 1.0 0.00 0.00 0.00 56 1021.2
20260830223841 89 147 0.0 1.0 0.00 0.00 0.00 55 1021.2
20260830223337 90 144 0.0 0.0 0.00 0.00 0.00 54 1021.4
20260830222836 90 144 0.0 0.0 0.00 0.00 0.00 54 1021.3
20260830222332 91 146 0.0 0.0 0.00 0.00 0.00 53 1021.3
20260830221827 91 152 1.0 1.0 0.00 0.00 0.00 51 1021.4
20260830221324 92 146 0.0 2.0 0.00 0.00 0.00 49 1021.4
20260830220824 93 142 0.0 1.0 0.00 0.00 0.00 48 1021.5
20260830220323 94 174 0.0 1.0 0.00 0.00 0.00 48 1021.2
20260830215821 94 169 1.0 2.0 0.00 0.00 0.00 46 1021.4
20260830215316 94 163 1.0 2.0 0.00 0.00 0.00 47 1021.3
20260830214811 94 147 0.0 1.0 0.00 0.00 0.00 46 1021.3
20260830214306 95 147 1.0 1.0 0.00 0.00 0.00 45 1021.4
20260830213805 95 153 0.0 2.0 0.00 0.00 0.00 45 1021.6
20260830213300 95 146 0.0 1.0 0.00 0.00 0.00 45 1021.7
20260830212757 95 150 1.0 3.0 0.00 0.00 0.00 45 1021.8
20260830212253 95 184 2.0 3.0 0.00 0.00 0.00 45 1021.9
20260830211751 95 151 1.0 1.0 0.00 0.00 0.00 46 1022.0
20260830211251 94 158 3.0 3.0 0.00 0.00 0.00 45 1022.2
20260830210747 94 157 1.0 5.0 0.00 0.00 0.00 46 1022.0
20260830210246 95 234 3.0 3.0 0.00 0.00 0.00 45 1022.1
20260830205743 96 122 1.0 1.0 0.00 0.00 0.00 46 1022.1
20260830205238 95 151 0.0 1.0 0.00 0.00 0.00 48 1022.1
20260830204733 94 152 0.0 1.0 0.00 0.00 0.00 48 1022.0
20260830204232 94 120 1.0 3.0 0.00 0.00 0.00 48 1022.1
20260830203729 95 148 0.0 2.0 0.00 0.00 0.00 46 1022.0
20260830203224 94 147 0.0 2.0 0.00 0.00 0.00 47 1022.1
20260830202723 94 139 0.0 2.0 0.00 0.00 0.00 47 1022.0
20260830202219 94 182 2.0 2.0 0.00 0.00 0.00 48 1022.4
20260830201718 93 132 1.0 2.0 0.00 0.00 0.00 49 1022.2
20260830201214 93 142 0.0 2.0 0.00 0.00 0.00 49 1022.2
20260830200709 93 144 0.0 1.0 0.00 0.00 0.00 49 1022.4
20260830200208 93 159 0.0 1.0 0.00 0.00 0.00 48 1022.4
20260830195704 93 158 1.0 2.0 0.00 0.00 0.00 46 1022.4
20260830195202 95 141 0.0 1.0 0.00 0.00 0.00 47 1022.3
20260830194656 94 148 0.0 2.0 0.00 0.00 0.00 46 1022.4
20260830194155 95 141 1.0 3.0 0.00 0.00 0.00 46 1022.7
20260830193650 96 143 1.0 1.0 0.00 0.00 0.00 45 1022.7
20260830193145 96 164 1.0 1.0 0.00 0.00 0.00 44 1022.6
20260830192640 95 157 0.0 2.0 0.00 0.00 0.00 43 1022.7
20260830192135 96 163 0.0 2.0 0.00 0.00 0.00 44 1022.7
20260830191631 95 155 0.0 1.0 0.00 0.00 0.00 44 1022.7
20260830191126 95 157 0.0 2.0 0.00 0.00 0.00 44 1022.8
20260830190621 96 152 1.0 5.0 0.00 0.00 0.00 43 1023.0
20260830190115 97 166 1.0 1.0 0.00 0.00 0.00 46 1022.9
20260830185609 96 227 1.0 2.0 0.00 0.00 0.00 46 1022.9
20260830185105 95 152 1.0 2.0 0.00 0.00 0.00 46 1023.4
20260830184603 95 163 2.0 3.0 0.00 0.00 0.00 48 1023.5
20260830184058 93 154 1.0 3.0 0.00 0.00 0.00 50 1023.5
20260830183553 93 135 1.0 2.0 0.00 0.00 0.00 51 1023.4
20260830183049 92 146 0.0 2.0 0.00 0.00 0.00 50 1023.7
20260830182544 94 146 1.0 2.0 0.00 0.00 0.00 48 1023.8
20260830182040 95 139 1.0 1.0 0.00 0.00 0.00 48 1023.8
20260830181537 94 220 2.0 2.0 0.00 0.00 0.00 48 1023.9
20260830181036 94 172 1.0 2.0 0.00 0.00 0.00 50 1024.0
20260830180535 92 163 1.0 2.0 0.00 0.00 0.00 52 1024.0
20260830180034 92 184 0.0 3.0 0.00 0.00 0.00 51 1024.2
20260830175533 93 163 5.0 6.0 0.00 0.00 0.00 49 1024.1
20260830175029 93 150 0.0 11.0 0.00 0.00 0.00 49 1024.2
20260830174524 93 128 0.0 3.0 0.00 0.00 0.00 51 1024.2
20260830174019 93 203 3.0 3.0 0.00 0.00 0.00 52 1024.1
20260830173515 93 154 1.0 2.0 0.00 0.00 0.00 52 1024.4
20260830173010 93 202 0.0 3.0 0.00 0.00 0.00 52 1024.2
20260830172507 92 148 0.0 2.0 0.00 0.00 0.00 53 1024.3
20260830172003 93 149 1.0 1.0 0.00 0.00 0.00 55 1024.4
20260830171458 91 172 3.0 3.0 0.00 0.00 0.00 55 1024.6
20260830170957 91 145 3.0 3.0 0.00 0.00 0.00 57 1024.4
20260830170452 91 160 2.0 3.0 0.00 0.00 0.00 58 1024.6
20260830165950 90 154 0.0 1.0 0.00 0.00 0.00 60 1024.5
20260830165447 90 178 0.0 1.0 0.00 0.00 0.00 61 1024.7
20260830164942 91 150 0.0 1.0 0.00 0.00 0.00 64 1024.5
20260830164438 90 162 0.0 2.0 0.00 0.00 0.00 64 1024.8
20260830163934 89 138 0.0 1.0 0.00 0.00 0.00 64 1024.7
20260830163431 90 153 0.0 1.0 0.00 0.00 0.00 65 1024.7
20260830162930 91 139 0.0 1.0 0.00 0.00 0.00 64 1024.9
20260830162426 92 145 0.0 1.0 0.00 0.00 0.00 66 1024.6
20260830161925 90 148 0.0 0.0 0.00 0.00 0.00 68 1024.5
20260830161420 90 149 0.0 2.0 0.00 0.00 0.00 68 1024.6
20260830160915 90 148 1.0 1.0 0.00 0.00 0.00 69 1024.8
20260830160411 89 143 0.0 1.0 0.00 0.00 0.00 72 1024.6
20260830155906 88 145 0.0 1.0 0.00 0.00 0.00 73 1024.6
20260830155402 88 147 0.0 1.0 0.00 0.00 0.00 74 1024.5
20260830154851 87 148 0.0 1.0 0.00 0.00 0.00 76 1024.6
20260830154347 86 143 0.0 1.0 0.00 0.00 0.00 77 1024.5
20260830153844 86 142 0.0 1.0 0.00 0.00 0.00 77 1024.7
20260830153339 86 147 0.0 1.0 0.00 0.00 0.00 78 1024.6
20260830152837 85 143 1.0 1.0 0.00 0.00 0.00 80 1024.7
20260830152332 84 147 0.0 1.0 0.00 0.00 0.00 81 1024.7
20260830151827 84 148 1.0 1.0 0.00 0.00 0.00 82 1024.7
20260830151326 83 147 0.0 1.0 0.00 0.00 0.00 84 1024.6
20260830150821 83 144 0.0 1.0 0.00 0.00 0.00 86 1024.7
20260830150321 82 148 0.0 0.0 0.00 0.00 0.00 87 1024.5
20260830145815 81 142 1.0 1.0 0.00 0.00 0.00 88 1024.5
20260830145310 80 144 0.0 2.0 0.00 0.00 0.00 89 1024.3
20260830144806 80 146 0.0 0.0 0.00 0.00 0.00 90 1024.5
20260830144301 79 147 0.0 1.0 0.00 0.00 0.00 91 1024.3
20260830143757 79 146 0.0 1.0 0.00 0.00 0.00 93 1024.4
20260830143256 78 146 0.0 0.0 0.00 0.00 0.00 94 1024.3
20260830142751 77 145 0.0 0.0 0.00 0.00 0.00 96 1024.5
20260830142246 77 146 0.0 0.0 0.00 0.00 0.00 97 1024.2
20260830141741 75 146 0.0 0.0 0.00 0.00 0.00 98 1024.0
20260830141236 74 147 0.0 0.0 0.00 0.00 0.00 98 1024.2
20260830140731 73 148 0.0 0.0 0.00 0.00 0.00 99 1024.1
20260830140226 72 147 0.0 0.0 0.00 0.00 0.00 99 1024.3
20260830135721 72 147 0.0 0.0 0.00 0.00 0.00 99 1024.1
20260830135216 71 148 0.0 1.0 0.00 0.00 0.00 99 1024.2
20260830134712 71 148 0.0 0.0 0.00 0.00 0.00 99 1024.2
20260830134206 70 147 0.0 0.0 0.00 0.00 0.00 99 1024.1
20260830133703 70 147 0.0 0.0 0.00 0.00 0.00 99 1024.1
20260830133158 69 147 0.0 1.0 0.00 0.00 0.00 99 1023.8
20260830132654 68 148 0.0 0.0 0.00 0.00 0.00 99 1024.0
20260830132149 68 147 1.0 1.0 0.00 0.00 0.00 99 1024.0
20260830131648 68 147 0.0 1.0 0.00 0.00 0.00 99 1024.0
20260830131143 67 145 0.0 0.0 0.00 0.00 0.00 99 1023.8
20260830130637 67 145 0.0 0.0 0.00 0.00 0.00 99 1023.9
20260830130132 66 145 0.0 0.0 0.00 0.00 0.00 99 1023.9
20260830125631 66 145 0.0 0.0 0.00 0.00 0.00 99 1024.1
20260830125126 65 145 0.0 0.0 0.00 0.00 0.00 99 1024.2
20260830124624 65 145 0.0 0.0 0.00 0.00 0.00 99 1023.9
20260830124120 65 145 0.0 0.0 0.00 0.00 0.00 99 1023.9
20260830123617 64 145 0.0 0.0 0.00 0.00 0.00 99 1024.1
20260830123112 64 145 0.0 0.0 0.00 0.00 0.00 99 1024.2
20260830122609 64 145 0.0 0.0 0.00 0.00 0.00 99 1024.2
20260830122105 64 145 0.0 0.0 0.00 0.00 0.00 99 1024.1
20260830121601 63 145 0.0 0.0 0.00 0.00 0.00 99 1023.9
20260830121059 63 145 0.0 0.0 0.00 0.00 0.00 99 1023.7
20260830120555 63 145 0.0 0.0 0.00 0.00 0.00 99 1023.8
20260830120051 63 145 0.0 0.0 0.00 0.00 0.00 99 1023.6
20260830115547 63 145 0.0 0.0 0.00 0.00 0.00 99 1023.7
20260830115043 62 146 0.0 0.0 0.00 0.00 0.00 99 1023.6
20260830114539 62 146 0.0 0.0 0.00 0.00 0.00 99 1023.7
20260830114038 62 146 0.0 0.0 0.00 0.00 0.00 99 1023.5
20260830113534 62 145 0.0 0.0 0.00 0.00 0.00 99 1023.7
20260830113029 62 145 0.0 0.0 0.00 0.00 0.00 99 1023.6
20260830112525 62 145 0.0 0.0 0.00 0.00 0.00 99 1023.4
20260830112021 62 145 0.0 0.0 0.00 0.00 0.00 99 1023.4
20260830111516 62 145 0.0 0.0 0.00 0.00 0.00 99 1023.4
20260830111013 62 145 0.0 0.0 0.00 0.00 0.00 99 1023.5
20260830110512 62 145 0.0 0.0 0.00 0.00 0.00 99 1023.6
20260830110007 62 145 0.0 0.0 0.00 0.00 0.00 99 1023.4
20260830105503 63 145 0.0 0.0 0.00 0.00 0.00 99 1023.4
20260830104959 62 145 0.0 0.0 0.00 0.00 0.00 99 1023.6
20260830104455 63 145 0.0 0.0 0.00 0.00 0.00 99 1023.1
20260830103950 63 145 0.0 0.0 0.00 0.00 0.00 99 1023.1
20260830103446 63 145 0.0 0.0 0.00 0.00 0.00 99 1023.3
20260830102943 63 145 0.0 0.0 0.00 0.00 0.00 99 1023.1
20260830102439 63 145 0.0 0.0 0.00 0.00 0.00 99 1023.0